This demonstration page uses our WeatherBlox Daily Observations layout. Learn more.

Left ArrowRight Arrow

34.16533, -84.80231

Hourly Observations for November 15, 2020

Temp ( °F °C ) Dew Point ( °F °C ) Humidity (%) Winds ( mph kmh ) Pressure ( in mb ) Visibility ( mi km ) Precip ( " mm )
12:53 am 00:53 Clear 59 15 51 10.6 75 75 E 3 6 30.05 1018 10 16 0.00 0.00
1:53 am 01:53 Clear 58 14.4 53 11.7 84 84 ESE 5 7 30.04 1017 10 16 0.00 0.00
2:53 am 02:53 Clear 57 13.9 52 11.1 83 83 Calm 30.04 1017 10 16 0.00 0.00
3:53 am 03:53 Clear 56 13.3 52 11.1 87 87 VRB 3 6 30.04 1017 10 16 0.00 0.00
4:53 am 04:53 Clear 56 13.3 52 11.1 87 87 VRB 7 11 30.01 1016 10 16 0.00 0.00
5:53 am 05:53 Clear 56 13.3 51 10.6 84 84 ESE 3 6 30.01 1016 10 16 0.00 0.00
6:53 am 06:53 Clear 54 12.2 51 10.6 90 90 Calm 30.02 1017 10 16 0.00 0.00
7:13 am 07:13 Mostly Cloudy 52 11.1 50 10 93 93 Calm 30.07 1018 9 14 0.00 0.00
7:42 am 07:42 Cloudy 55 12.8 52 11.1 90 90 Calm 30.08 1019 8 13 0.00 0.00
7:53 am 07:53 Cloudy 55 12.8 52 11.1 90 90 SE 5 7 30.05 1018 7 11 0.00 0.00
8:10 am 08:10 Cloudy 56 13.3 53 11.7 90 90 SSE 3 6 30.08 1019 10 16 0.00 0.00
8:50 am 08:50 Cloudy 61 16 54 12 77 77 Calm 30.07 1018 10 16 0.00 0.00
8:53 am 08:53 Cloudy 60 15.6 53 11.7 78 78 S 5 7 30.05 1018 10 16 0.00 0.00
9:53 am 09:53 Partly Cloudy 64 17.8 56 13.3 75 75 S 10 17 30.03 1017 10 16 0.00 0.00
10:34 am 10:34 Mostly Cloudy 69 20.6 59 15 70 70 S 7 11 30.03 1017 10 16 0.00 0.00
10:53 am 10:53 Cloudy 69 20.6 59 15 70 70 VRB 6 9 30.02 1017 10 16 0.00 0.00
11:53 am 11:53 Cloudy 70 21.1 61 16.1 73 73 VRB 7 11 30.01 1016 10 16 0.00 0.00
12:53 pm 12:53 Cloudy 66 18.9 58 14.4 75 75 VRB 3 6 30.03 1017 10 16 0.01 0.25
1:10 pm 13:10 Cloudy 66 18.9 55 12.8 68 68 VRB 5 7 30.05 1017 10 16 0.00 0.00
1:53 pm 13:53 Cloudy 66 18.9 52 11.1 61 61 Calm 30.03 1017 10 16 0.00 0.00
2:53 pm 14:53 Cloudy 65 18.3 45 7.2 49 49 VRB 5 7 30.03 1017 10 16 0.00 0.00
3:53 pm 15:53 Sunny 65 18.3 41 5 42 42 VRB 3 6 30.04 1017 10 16 0.00 0.00
4:53 pm 16:53 Sunny 63 17.2 41 5 45 45 VRB 3 6 30.06 1018 10 16 0.00 0.00
5:53 pm 17:53 Clear 55 12.8 44 6.7 67 67 Calm 30.07 1018 10 16 0.00 0.00
6:53 pm 18:53 Hazy 53 11.7 43 6.1 69 69 Calm 30.09 1019 5 8 0.00 0.00
7:53 pm 19:53 Clear 50 10 39 3.9 66 66 Calm 30.12 1020 10 16 0.00 0.00
8:53 pm 20:53 Clear 48 8.9 38 3.3 68 68 Calm 30.14 1021 10 16 0.00 0.00
9:53 pm 21:53 Clear 47 8.3 33 0.6 59 59 Calm 30.15 1021 10 16 0.00 0.00
10:53 pm 22:53 Clear 45 7.2 33 0.6 63 63 Calm 30.17 1022 10 16 0.00 0.00
11:53 pm 23:53 Clear 45 7.2 32 0 61 61 Calm 30.18 1022 10 16 0.00 0.00

Powered by AerisWeather